COSMOS 1261 DEB, 12894

Orbit data source: Space-Track

COSMOS 1261 DEB, 12894 is space debris in HEO originally from a launch on Tue, 31 Mar 1981 UTC launched from the Plesetsk Missile And Space Complex (PKMTR). Debris objects in space refer to the collection of defunct objects orbiting the Earth. Examples of debris include non-operational satellites, rocket bodies, and fragments generated from explosions, collisions, or faulty payload assembly.

Loading next visibility...
Identifier
12894, 1981-031G
Orbit
HEO
Country
Flag of CISCIS
Related business
Manufacturer
Unknown
Mission
Spacecraft
Bus & Motor
Unknown
Mass
Unknown
Launch date (UTC)
1981-03-31 (45 years ago)
Launch vehicle
Unknown
Launch site
Plesetsk Missile And Space Complex (PKMTR)
Object type
Payload
Rocket body
Debris
Shape & HBR
Unknown shape, 1.1 m
Radar Cross Section
Medium (>0.1 m² and <1 m²)

Expand to show TLE details & history
Last TLE update: 5 days ago

TLE from 5 days ago
0 COSMOS 1261 DEB
1 12894U 81031G   25343.34265834 -.00000344  00000-0  00000-0 0  9991
2 12894  69.4722 103.4856 5764824 354.7510  11.0049  2.00310332297966
Epoch: 2025-12-09T08:13Z
TLE epoch observation values (Epoch: 2025-12-09T08:13:25.680Z)
Latitude
38.35476°
Longitude
-81.06239°
Altitude
6,332.712 km
Speed
6.911 km/s
True Right ascension
08h 02m 29s
True Declination
38° 15' 39"
Sunlit
Object was in daylight at epoch
Visualization orbit readout
Latitude
Unknown
Longitude
Unknown
Altitude
Unknown
Speed
Unknown
Apparent Right ascension
Unknown
Apparent Declination
Unknown
Sunlit
N/A
Visualization observer readout
Local Sidereal Time
03:44:21
Azimuth
Unknown
Elevation
Unknown
Doppler factor
Unknown
Orbital elements
Apogee altitude
35,527.587 km
Perigee altitude
4,879.719 km
Semi-major axis
26,581.79 km
Eccentricity
0.57648
Inclination
69.4722°
RAAN
103.4856°
Arg. of periapsis
354.751°
True anomaly
46.18602°
Mean anomaly
11.0049°
Eccentric anomaly
24.92455°
Mean motion
0.5008 °/min
Orbital period
718.85 mins
BSTAR
0
Loading maneuver chart data...
Computing Atmospheric mass density...
Loading historical data...
Loading historical data...
Loading historical data...
Loading historical data...
Loading historical data...
Loading historical data...
Loading historical data...

Documentation

Showing up to 5 results
|